Torna al catalogo

STARLINK-30917

AttivoComunicazioniVLEO
NORAD 58419·PAYLOAD·🇺🇸 United States

Lanciato Nov 22, 2023 da Cape Canaveral Space Force Station

Loading…

Prossimi Passaggi (prossime 24 ore)

TLE

AggiornatoSource: CelesTrak SupGP

Epoca: Sep 15, 2026, 02:11 UTC

1 58419C 23180T   26258.09145833  .00043834  00000+0  15878-2 0  2587
2 58419  43.0022 314.1195 0001834 259.3711  87.9155 15.27552286    17

Traccia STARLINK-30917 in tempo reale con AllMySat

Download on the App Store